Location: Molino di Ancona
(43.6167°N, 13.3667°E)
Time: 14:04:56
(UTC+00:00)

COSMO-SKYMED 1 - Pass Details

Date: 15 December 2019
Orbit: 621 x 623 km, 97.9° (Epoch: 24 January)

Event Time Altitude Azimuth Distance (km) Brightness Sun altitude
Rises 03:58:29 0° 156° (SSE) 2,891 6.4 -26.9°
Reaches altitude 10° 04:00:41 10° 152° (SSE) 1,989 5.6 -26.5°
Maximum altitude 04:04:56 59° 74° (ENE) 726 3.0 -25.8°
Enters shadow 04:05:58 45° 22° (NNE) 854 3.3 -25.6°
